Regional Weather Roundup
Issued by NWS

Home | Current Version | Previous Version | Graphics & Text | Print | Product List | Glossary On
Versions: 1 2 3 4 5 6 7 8 9 10 11 12 13 14 15 16 17 18 19 20 21 22 23 24 25 26 27 28 29 30 31 32 33 34 35 36 37 38 39 40 41 42 43 44 45 46 47 48 49 50
000
ASUS43 KLOT 052008
RWRIL

ILLINOIS REGIONAL WEATHER ROUNDUP
NATIONAL WEATHER SERVICE CHICAGO/ROMEOVILLE IL
300 PM CDT TUE MAY 05 2015

NOTE: "FAIR" INDICATES FEW OR NO CLOUDS BELOW 12,000 FEET WITH NO
SIGNIFICANT WEATHER AND/OR OBSTRUCTIONS TO VISIBILITY.

* THESE STATIONS ARE NOT UNDER NWS QUALITY CONTROL. THEY ALSO MAY NOT
  REPORT WEATHER SUCH AS PRECIPITATION OR FOG.

ILZ001-002-007-009-015-016-024-052100-
NORTHWEST ILLINOIS

CITY           SKY/WX    TMP DP  RH WIND       PRES   REMARKS
MOLINE         PTSUNNY   71  62  73 NE13      30.14F HAZE
STERLING*      CLOUDY    63  57  82 E13       30.19F
$$

ILZ003-004-008-010-011-017-018-052100-
NORTH CENTRAL ILLINOIS

CITY           SKY/WX    TMP DP  RH WIND       PRES   REMARKS
ROCKFORD       LGT RAIN  55  50  83 NE13      30.23F
FREEPORT*      CLOUDY    53  51  94 E13       30.24S
ROCHELLE*      CLOUDY    58  56  91 NE14      30.21S FOG
DE KALB*       CLOUDY    58  55  89 NE13      30.21F
PERU*          PTSUNNY   69  64  82 NE10      30.17F HAZE
$$

ILZ005-006-012>014-019>023-052100-
NORTHEAST ILLINOIS

CITY           SKY/WX    TMP DP  RH WIND       PRES   REMARKS
CHICAGO-OHARE  FOG       50  49  96 NE10      30.22F VSB 1/4
CHICAGO-MIDWAY CLOUDY    57  52  83 N9        30.22F FOG
AURORA         CLOUDY    61  54  77 NE14      30.20F HAZE
LANSING*       PTSUNNY   56  51  84 N7        30.21F HAZE
JOLIET*        CLOUDY    66  60  80 NE10      30.19S HAZE
WAUKEGAN       CLOUDY    46  45  96 NE9       30.25F FOG
DUPAGE AIRPORT CLOUDY    57  52  83 NE12      30.21F
KANKAKEE*      MOSUNNY   75  67  77 NE7       30.16F
WHEELING       CLOUDY    49  47  93 NE12      30.26S FOG
MORRIS*        PTSUNNY   67  61  80 N7        30.16F HAZE
ROMEOVILLE*    CLOUDY    61  56  82 NE13      30.19F HAZE
NORTHERLY ISL    N/A     47  46  97 N7          N/A
$$

LMZ740>746-052100-
SOUTHERN LAKE MICHIGAN

STATION/POSITION SKY/WX   TEMP    WIND        PRES    VSBY  WAVE
                          AIR SEA DIR/SP/G                  HT/PER
                          (F)     (DEG/KT/KT) (MB)    (MI)  (FT/S)
HARRISON CRIB              44     360/ 10/ 11   N/A
BURNHAM HARBOR             48      20/  5/ 12   N/A
CALUMET HARBOR             47     340/ 12/ 14   N/A
BURNS HARBOR               49     350/  2/  3 1023.7S
MICHIGAN CITY              53      20/  8/  9   N/A
MICHIGAN CITY 6N           51 50   50/ 10/ 12   N/A           2/ 4
ST. JOSEPH                 54 49  100/ 10/ 12   N/A           1/ 3
$$

ILZ025>027-034>036-040-047-049-050-058-095>099-052100-
WEST-CENTRAL ILLINOIS

CITY           SKY/WX    TMP DP  RH WIND       PRES   REMARKS
QUINCY         PTSUNNY   80  56  43 W8        30.12F HX  80
GALESBURG*     PTSUNNY   78  65  65 CALM      30.13F
MACOMB*        PTSUNNY   80  63  56 W6        30.14F HX  81
JACKSONVILLE*  PTSUNNY   87  53  30 S13G20    30.13S HX  85
PITTSFIELD*    MOSUNNY   83  51  32 SW9       30.13F HX  81
$$

ILZ028>032-037-038-041>044-048-051>054-059>061-052100-
CENTRAL ILLINOIS

CITY           SKY/WX    TMP DP  RH WIND       PRES   REMARKS
PONTIAC        PTSUNNY   76  70  81 N7        30.15F
BLOOMINGTON    MOSUNNY   82  64  54 W10       30.15F HX  83
DECATUR        PTSUNNY   84  52  33 W14       30.14F HX  82
PEORIA         MOSUNNY   83  61  47 W12       30.13F HX  83
LACON*         PTSUNNY   75  67  77 NE9       30.13F HAZE
LINCOLN*       CLOUDY    83  58  42 W3        30.10S HX  83
SPRINGFIELD    MOSUNNY   85  54  34 SW12G18   30.13S HX  83
TAYLORVILLE    PTSUNNY   82  52  34 S9        30.14S HX  81
$$

ILZ033-039-045-046-055>057-062-063-052100-
EAST-CENTRAL ILLINOIS

CITY           SKY/WX    TMP DP  RH WIND       PRES   REMARKS
CHAMPAIGN      PTSUNNY   84  51  31 SW14      30.14F HX  82
DANVILLE*      MOSUNNY   84  55  36 SW12G17   30.12F HX  83
RANTOUL*       PTSUNNY   84  60  44 W8        30.14F HX  84
MATTOON        MOSUNNY   82  51  34 S12G22    30.15F HX  81
PARIS*         MOSUNNY   85  50  29 SW10G22   30.16F HX  83
$$

ILZ079-100>102-052100-
SOUTHWEST ILLINOIS

CITY           SKY/WX    TMP DP  RH WIND       PRES   REMARKS
BELLEVILLE     PTSUNNY   84  57  39 VRB6      30.13F HX  83
CAHOKIA*       PTSUNNY   82  55  39 S13G20    30.14S HX  81
SPARTA*        MOSUNNY   82  58  45 S10G17    30.16F HX  82
$$

ILZ064>066-069>071-074>076-080>082-084>086-088>090-092>094-052100-
SOUTH-CENTRAL ILLINOIS

CITY           SKY/WX    TMP DP  RH WIND       PRES   REMARKS
CARBONDALE     MOSUNNY   83  56  39 S10G21    30.16F HX  82
CAIRO*         CLOUDY    81  58  45 SE3       30.16F HX  81
EFFINGHAM*     PTSUNNY   84  47  27 SW9       30.17F HX  82
MARION         PTSUNNY   84  59  42 S9        30.18F HX  84
MT. VERNON     MOSUNNY  N/A N/A N/A S14G22    30.17F
CENTRALIA*     MOSUNNY   85  51  31 S9G23     30.16F HX  83
SALEM*         MOSUNNY   86  50  28 S13G18    30.16F HX  84
METROPOLIS*    MOSUNNY   85  56  37 S7        30.16F HX  84
$$

ILZ067-068-072-073-078-083-087-091-052100-
SOUTHEAST ILLINOIS

CITY           SKY/WX    TMP DP  RH WIND       PRES   REMARKS
LAWRENCEVILLE  MOSUNNY   83  53  35 SW13      30.17F HX  82
FLORA*         MOSUNNY   85  53  33 SW12G21   30.17F HX  83
FAIRFIELD*     MOSUNNY   84  55  37 S12G21    30.15F HX  82
HARRISBURG*    MOSUNNY   85  53  33 SE7       30.18F HX  83
ROBINSON*      SUNNY     86  50  28 SW12      30.18F HX  83
CARMI*         MOSUNNY   83  45  25 S8        30.18F HX  81
$$

ABBREVIATIONS USED IN REMARKS
   TC - TEMPERATURE IN CELSIUS
  WCI - WIND CHILL INDEX
   HX - HEAT INDEX
  VSB - VISIBILITY
$$




USA.gov is the U.S. government's official web portal to all federal, state and local government web resources and services.